MMS 3 (40484 NORAD) Tracking and Keplerian Element Data

This shows tracking and keplerian element data for the satellite.

Feedback or suggestion? Click here.




ElementValue
Catalog40484
NameMMS 3
Epoch Orbit904
Epoch Day197.70833333
Epoch Year2018
RAAN315.2445
Inclination8.1179
Eccentricity0.9088186
Argument of Perigee164.1168
Mean Anonmoly266.9488
Mean Motion0.35513466
Decay Rate-1.27E-05
L11 40484U 15011C 18197.70833333 -.00001270 00000-0 00000+0 0 9994
L22 40484 8.1179 315.2445 9088186 164.1168 266.9488 0.35513466 9048

Live tracking and technical data element details for MMS 3 (NORAD 40484). MMS 3 can be tracked NOW for your location showing map with azimuth and elevation plus other details from your city location.

Track the satellite on the map from your city or location and see movement details for azimuth, elevation, latitude, longitude, range, height, and movement on the map or in text.







IsCatalogInMostPopularTable: catalog: 40484, numindb: 63
Update: records affected: 1



GetName: 40484 MMS 3

Hit Count: updated at: Fri, 20 Jul 2018 20:36:55 GMT